• In Österreich
  • Länderverzeichnis
  • Für 7 Tage
  • Wassertemperatur
  • Satellitenkarten
  • Wetterkarte
  • News
  • Widgets
  • user-avatar
    Anmelden

    Stündliche Wetter Sofia

    Heute, 18 August, Samstag

    Zeit Temperatur Niederschläge Wind Luftdruck Luftfeuchtigkeit
    00:00 +20°C° 0,1 mm 1 m/S 711 mmHg 71%
    01:00 +20°C° 0,1 mm 1 m/S 711 mmHg 71%
    02:00 +20°C° 0 mm 1 m/S 711 mmHg 74%
    03:00 +19°C° 0 mm 1 m/S 711 mmHg 75%
    04:00 +19°C° 0 mm 1 m/S 711 mmHg 77%
    05:00 +19°C° 0 mm 1 m/S 711 mmHg 78%
    06:00 +21°C° 0 mm 1 m/S 712 mmHg 72%
    07:00 +23°C° 0 mm 1 m/S 712 mmHg 65%
    08:00 +24°C° 0 mm 1 m/S 712 mmHg 59%
    09:00 +26°C° 0 mm 1 m/S 712 mmHg 52%
    10:00 +28°C° 0 mm 2 m/S 713 mmHg 45%
    11:00 +30°C° 0 mm 3 m/S 713 mmHg 39%
    12:00 +30°C° 0 mm 3 m/S 713 mmHg 37%
    13:00 +31°C° 0 mm 3 m/S 712 mmHg 36%
    14:00 +31°C° 0 mm 3 m/S 712 mmHg 34%
    15:00 +31°C° 0 mm 3 m/S 712 mmHg 35%
    16:00 +30°C° 0 mm 3 m/S 712 mmHg 37%
    17:00 +30°C° 0 mm 3 m/S 712 mmHg 38%
    18:00 +28°C° 0 mm 3 m/S 712 mmHg 44%
    19:00 +26°C° 0 mm 2 m/S 712 mmHg 49%
    20:00 +23°C° 0 mm 1 m/S 711 mmHg 55%
    21:00 +23°C° 0 mm 1 m/S 712 mmHg 57%
    22:00 +22°C° 0 mm 1 m/S 712 mmHg 58%
    23:00 +21°C° 0 mm 1 m/S 712 mmHg 60%

    Morgen, 19 August, Sonntag

    Zeit Temperatur Niederschläge Wind Luftdruck Luftfeuchtigkeit
    00:00 +21°C° 0 mm 1 m/S 712 mmHg 60%
    01:00 +21°C° 0 mm 1 m/S 712 mmHg 61%
    02:00 +20°C° 0 mm 1 m/S 712 mmHg 61%
    03:00 +20°C° 0 mm 1 m/S 712 mmHg 63%
    04:00 +20°C° 0 mm 1 m/S 712 mmHg 64%
    05:00 +19°C° 0 mm 1 m/S 712 mmHg 65%
    06:00 +21°C° 0 mm 1 m/S 712 mmHg 60%
    07:00 +23°C° 0 mm 1 m/S 713 mmHg 54%
    08:00 +25°C° 0 mm 1 m/S 713 mmHg 49%
    09:00 +27°C° 0 mm 1 m/S 714 mmHg 43%
    10:00 +29°C° 0 mm 2 m/S 714 mmHg 37%
    11:00 +30°C° 0 mm 3 m/S 714 mmHg 31%
    12:00 +31°C° 0 mm 3 m/S 713 mmHg 30%
    13:00 +31°C° 0 mm 3 m/S 713 mmHg 29%
    14:00 +33°C° 0 mm 4 m/S 713 mmHg 28%
    15:00 +31°C° 0 mm 3 m/S 713 mmHg 29%
    16:00 +31°C° 0 mm 3 m/S 712 mmHg 31%
    17:00 +30°C° 0 mm 3 m/S 712 mmHg 32%
    18:00 +28°C° 0 mm 3 m/S 712 mmHg 38%
    19:00 +26°C° 0 mm 2 m/S 711 mmHg 44%
    20:00 +23°C° 0 mm 1 m/S 711 mmHg 50%
    21:00 +23°C° 0 mm 1 m/S 711 mmHg 52%
    22:00 +22°C° 0 mm 1 m/S 712 mmHg 53%
    23:00 +21°C° 0 mm 1 m/S 712 mmHg 55%

    übermorgen, 20 August, Montag

    Zeit Temperatur Niederschläge Wind Luftdruck Luftfeuchtigkeit
    00:00 +21°C° 0 mm 1 m/S 712 mmHg 56%
    01:00 +21°C° 0 mm 1 m/S 712 mmHg 57%
    02:00 +20°C° 0 mm 1 m/S 711 mmHg 58%
    03:00 +20°C° 0 mm 1 m/S 711 mmHg 60%
    04:00 +20°C° 0 mm 1 m/S 711 mmHg 62%
    05:00 +19°C° 0 mm 1 m/S 711 mmHg 64%
    06:00 +21°C° 0 mm 1 m/S 712 mmHg 59%
    07:00 +23°C° 0 mm 1 m/S 712 mmHg 55%
    08:00 +25°C° 0 mm 1 m/S 712 mmHg 50%
    09:00 +26°C° 0 mm 1 m/S 712 mmHg 46%
    10:00 +28°C° 0 mm 2 m/S 713 mmHg 41%
    11:00 +30°C° 0 mm 3 m/S 713 mmHg 37%
    12:00 +30°C° 0 mm 3 m/S 712 mmHg 36%
    13:00 +31°C° 0 mm 3 m/S 712 mmHg 35%
    14:00 +32°C° 0 mm 4 m/S 712 mmHg 33%
    15:00 +32°C° 0 mm 4 m/S 711 mmHg 34%
    16:00 +30°C° 0 mm 4 m/S 711 mmHg 35%
    17:00 +30°C° 0 mm 4 m/S 711 mmHg 36%
    18:00 +28°C° 0 mm 3 m/S 711 mmHg 42%
    19:00 +25°C° 0 mm 2 m/S 711 mmHg 48%
    20:00 +23°C° 0 mm 2 m/S 711 mmHg 54%
    21:00 +22°C° 0 mm 1 m/S 711 mmHg 55%
    22:00 +21°C° 0 mm 1 m/S 711 mmHg 57%
    23:00 +20°C° 0 mm 1 m/S 711 mmHg 58%

    21 August, Dienstag

    Zeit Temperatur Niederschläge Wind Luftdruck Luftfeuchtigkeit
    00:00 +20°C° 0 mm 1 m/S 711 mmHg 59%
    01:00 +20°C° 0 mm 1 m/S 711 mmHg 59%
    02:00 +19°C° 0 mm 1 m/S 711 mmHg 60%
    03:00 +19°C° 0 mm 1 m/S 711 mmHg 60%
    04:00 +19°C° 0 mm 1 m/S 711 mmHg 61%
    05:00 +18°C° 0 mm 1 m/S 711 mmHg 62%
    06:00 +20°C° 0 mm 1 m/S 711 mmHg 57%
    07:00 +22°C° 0 mm 1 m/S 712 mmHg 53%
    08:00 +24°C° 0 mm 1 m/S 712 mmHg 48%
    09:00 +26°C° 0 mm 1 m/S 712 mmHg 43%
    10:00 +27°C° 0 mm 2 m/S 713 mmHg 38%
    11:00 +29°C° 0 mm 3 m/S 713 mmHg 33%
    12:00 +30°C° 0 mm 3 m/S 712 mmHg 32%
    13:00 +31°C° 0 mm 3 m/S 712 mmHg 30%
    14:00 +31°C° 0 mm 3 m/S 712 mmHg 28%
    15:00 +31°C° 0 mm 3 m/S 712 mmHg 29%
    16:00 +31°C° 0 mm 3 m/S 712 mmHg 30%
    17:00 +30°C° 0 mm 3 m/S 711 mmHg 30%
    18:00 +28°C° 0 mm 3 m/S 711 mmHg 36%
    19:00 +25°C° 0 mm 2 m/S 711 mmHg 42%
    20:00 +21°C° 0 mm 2 m/S 711 mmHg 48%
    21:00 +21°C° 0 mm 1 m/S 711 mmHg 49%
    22:00 +21°C° 0 mm 1 m/S 712 mmHg 50%
    23:00 +20°C° 0 mm 1 m/S 712 mmHg 51%

    22 August, Mittwoch

    Zeit Temperatur Niederschläge Wind Luftdruck Luftfeuchtigkeit
    00:00 +19°C° 0 mm 1 m/S 712 mmHg 52%
    01:00 +19°C° 0 mm 1 m/S 712 mmHg 52%
    02:00 +18°C° 0 mm 1 m/S 712 mmHg 52%
    03:00 +18°C° 0 mm 1 m/S 712 mmHg 52%
    04:00 +18°C° 0 mm 1 m/S 712 mmHg 52%
    05:00 +16°C° 0 mm 1 m/S 712 mmHg 52%
    06:00 +20°C° 0 mm 1 m/S 712 mmHg 48%
    07:00 +22°C° 0 mm 1 m/S 713 mmHg 44%
    08:00 +24°C° 0 mm 1 m/S 713 mmHg 40%
    09:00 +26°C° 0 mm 1 m/S 713 mmHg 35%
    10:00 +28°C° 0 mm 2 m/S 714 mmHg 30%
    11:00 +30°C° 0 mm 3 m/S 714 mmHg 25%
    12:00 +31°C° 0 mm 3 m/S 714 mmHg 24%
    13:00 +31°C° 0 mm 3 m/S 713 mmHg 22%
    14:00 +33°C° 0 mm 4 m/S 713 mmHg 21%
    15:00 +33°C° 0 mm 4 m/S 713 mmHg 23%
    16:00 +32°C° 0 mm 4 m/S 712 mmHg 24%
    17:00 +32°C° 0 mm 4 m/S 712 mmHg 25%
    18:00 +28°C° 0 mm 3 m/S 712 mmHg 30%
    19:00 +25°C° 0 mm 2 m/S 712 mmHg 36%
    20:00 +21°C° 0 mm 2 m/S 712 mmHg 41%
    21:00 +21°C° 0 mm 2 m/S 712 mmHg 43%
    22:00 +21°C° 0 mm 1 m/S 712 mmHg 44%
    23:00 +20°C° 0 mm 1 m/S 712 mmHg 45%

    23 August, Donnerstag

    Zeit Temperatur Niederschläge Wind Luftdruck Luftfeuchtigkeit
    00:00 +19°C° 0 mm 1 m/S 712 mmHg 45%
    01:00 +19°C° 0 mm 1 m/S 712 mmHg 46%
    02:00 +18°C° 0 mm 1 m/S 712 mmHg 46%
    03:00 +18°C° 0 mm 1 m/S 712 mmHg 46%
    04:00 +18°C° 0 mm 1 m/S 712 mmHg 46%
    05:00 +18°C° 0 mm 1 m/S 712 mmHg 46%
    06:00 +20°C° 0 mm 1 m/S 713 mmHg 43%
    07:00 +22°C° 0 mm 1 m/S 713 mmHg 41%
    08:00 +24°C° 0 mm 1 m/S 714 mmHg 38%
    09:00 +26°C° 0 mm 2 m/S 714 mmHg 36%
    10:00 +28°C° 0 mm 2 m/S 714 mmHg 34%
    11:00 +29°C° 0 mm 3 m/S 714 mmHg 32%
    12:00 +30°C° 0 mm 3 m/S 713 mmHg 31%
    13:00 +32°C° 0 mm 4 m/S 713 mmHg 30%
    14:00 +32°C° 0 mm 4 m/S 713 mmHg 29%
    15:00 +32°C° 0 mm 4 m/S 712 mmHg 30%
    16:00 +32°C° 0 mm 4 m/S 712 mmHg 31%
    17:00 +30°C° 0 mm 4 m/S 712 mmHg 32%
    18:00 +28°C° 0 mm 3 m/S 711 mmHg 38%
    19:00 +25°C° 0 mm 2 m/S 711 mmHg 44%
    20:00 +23°C° 0 mm 2 m/S 711 mmHg 50%
    21:00 +21°C° 0 mm 2 m/S 711 mmHg 52%
    22:00 +21°C° 0 mm 1 m/S 711 mmHg 54%
    23:00 +20°C° 0 mm 1 m/S 711 mmHg 56%
    Mehr zeigen